Weather Roundup
Issued by NWS Chicago, IL

Home | Current Version | Previous Version | Text Only | Print | Product List | Glossary Off
Versions: 1 2 3 4 5 6 7 8 9 10 11 12 13 14 15 16 17 18 19 20 21 22 23 24 25 26 27 28 29 30 31 32 33 34 35 36 37 38 39 40 41 42 43 44 45 46 47 48 49 50

000
NZUS59 KLOT 220910
HRRLOT

CHICAGO AREA WEATHER ROUNDUP
NATIONAL WEATHER SERVICE CHICAGO/ROMEOVILLE IL
300 AM CST MON DEC 22 2014

NOTE: "FAIR" INDICATES FEW OR NO CLOUDS BELOW 12,000 FEET WITH NO
SIGNIFICANT WEATHER AND/OR OBSTRUCTIONS TO VISIBILITY.

* THESE STATIONS ARE NOT UNDER NWS QUALITY CONTROL. THEY ALSO MAY NOT
  REPORT WEATHER SUCH AS PRECIPITATION OR FOG.

ILZ005-006-012>014-019>023-221000-
NORTHEAST ILLINOIS

CITY           SKY/WX    TMP DP  RH WIND       PRES   REMARKS
OHARE          MOCLDY    28  25  88 SE7       29.97F WCI  21
MIDWAY         MOCLDY    33  27  78 SE7       29.99F WCI  27
AURORA         CLOUDY    32  27  81 SE7       29.96F HAZE    WCI  26
LANSING*       MOCLDY    30  26  85 SE9       29.99F FOG     WCI  22
JOLIET*        CLOUDY    31  28  88 SE6       29.97F FOG     WCI  25
WAUKEGAN       CLOUDY    32  27  81 SE9       29.97F WCI  24
DUPAGE AIRPORT CLOUDY    32  27  81 SE8       29.96F WCI  25
WHEELING       MOCLDY    30  26  85 SE7       29.99F WCI  23
KANKAKEE*      MOCLDY    30  28  91 SE8       29.99F WCI  23
MORRIS*        CLOUDY    33  31  90 S7        29.96S WCI  27
LEWIS AIRPORT* CLOUDY    30  28  92 S9        29.97F FOG     WCI  22
NORTHERLY IS     N/A     32  27  82 SE8         N/A  WCI  25
$$

WIZ051-052-058>065-066-070>072-221000-
SOUTHEAST WISCONSIN

CITY           SKY/WX    TMP DP  RH WIND       PRES   REMARKS
MILWAUKEE      CLOUDY    34  28  79 S9        29.97F WCI  27
KENOSHA*       CLOUDY    31  27  85 S7        29.97F FOG     WCI  24
RACINE*        CLOUDY    34  29  82 S10       29.99F WCI  26
BURLINGTON     CLOUDY    31  27  84 SE8       29.96F WCI  24
WAUKESHA       CLOUDY    32  28  86 SE10      29.96F WCI  24
WEST BEND      CLOUDY    32  28  86 S5        29.96S WCI  27
$$

INZ001>003-010>013-019-020-221000-
NORTHWEST INDIANA

CITY           SKY/WX    TMP DP  RH WIND       PRES   REMARKS
GARY*          MOCLDY    33  25  72 SE8       29.99F WCI  26
MICHIGAN CITY* NOT AVBL
RENSSELAER*    NOT AVBL
VALPARAISO     CLOUDY    27  24  89 E5        30.01F WCI  22
$$

LMZ740>746-221000-
SOUTHERN LAKE MICHIGAN

STATION/POSITION TIME  SKY/WX   TEMP WIND        PRES    VSBY
                                AIR  DIR/SP/G
                 (UTC)          (F)  (DEG/KT/KT) (MB)    (MI)
HARRISON CRIB    0900            33  170/ 15/ 17   N/A
BURNHAM HARBOR   0900            32  160/  7/ 11   N/A
CALUMET HARBOR   0900            31  150/  6/ 12 1014.4F
BURNS HARBOR     NOT AVBL
MICHIGAN CITY    NOT AVBL
$$

ABBREVIATIONS USED IN REMARKS
   TC - TEMPERATURE IN CELSIUS
  WCI - WIND CHILL INDEX
   HX - HEAT INDEX
  VSB - VISIBILITY
$$


USA.gov is the U.S. government's official web portal to all federal, state and local government web resources and services.